Regional Weather Roundup
Issued by NWS Kansas City/Pleasant Hill, MO

Home | Current Version | Previous Version | Text Only | Print | Product List | Glossary On
Versions: 1 2 3 4 5 6 7 8 9 10 11 12 13 14 15 16 17 18 19 20 21 22 23 24 25 26 27 28
000
ASUS43 KEAX 171010
RWREAX

WEATHER ROUNDUP FOR EASTERN KANSAS AND NORTHWEST MISSOURI
NATIONAL WEATHER SERVICE KANSAS CITY/PLEASANT HILL MO
400 AM CST TUE JAN 17 2017

KSZ040-057-103>105-MOZ028-029-037-043-171100-
...KANSAS CITY METROPOLITAN AREA...

CITY           SKY/WX    TMP DP  RH WIND       PRES   REMARKS
K.C. INTL      CLOUDY    34  33  96 W8        29.99S WCI  27
K.C. DOWNTOWN  CLOUDY    36  34  92 W6        30.00S FOG     WCI  31
LEES SUMMIT    CLOUDY    35  32  88 W9        30.00R HAZE    WCI  28
OLATHE - IXD   CLOUDY    34  34 100 W9        30.02R FOG     WCI  27
OLATHE - OJC   CLOUDY    34  34 100 W6        30.00S FOG     WCI  29
LAWRENCE       CLOUDY    34  34 100 W8        30.03S FOG     WCI  27

$$

MOZ001>008-011>017-020>025-030>033-038>040-044>046-053-054-171100-
...NORTHERN AND CENTRAL MISSOURI...

CITY           SKY/WX    TMP DP  RH WIND       PRES   REMARKS
ST. JOSEPH     CLOUDY    34  34 100 NW12      30.01S WCI  25
MOSBY          CLOUDY    36  34  93 W6        30.00R WCI  31
WARRENSBURG    CLOUDY    36  34  93 W10       30.00R WCI  28
WHITEMAN AFB   CLOUDY    37  37 100 W9        29.98R WCI  31
CLINTON        CLOUDY    37  37 100 W9        30.01S FOG     WCI  31
SEDALIA        CLOUDY    39  37  92 W10       29.99R WCI  32
WARSAW         NOT AVBL
CHILLICOTHE      N/A     35  34  96 NW7       29.97S WCI  29
KIRKSVILLE       N/A     37  36  96 MISG      29.93R FOG

$$

MOZ041-047>049-056>058-063>065-088>090-097-171100-
...EASTERN AND SOUTHERN MISSOURI...

CITY           SKY/WX    TMP DP  RH WIND       PRES   REMARKS
ST. LOUIS INTL CLOUDY    46  38  73 W18       29.93R
SPIRIT OF STL  CLOUDY    43  39  86 W9        29.95R
COLUMBIA       CLOUDY    41  39  93 SW12      29.96R WCI  34
JEFFERSON CITY CLOUDY    42  37  82 W9        29.98S
ROLLA          CLOUDY    40  37  89 W10       29.96S WCI  33
OSAGE BEACH    CLOUDY    41  37  86 W6        29.99S
SPRINGFIELD    CLOUDY    40  35  83 W10       30.01R WCI  33
BRANSON        CLOUDY    39  36  87 W3        30.04R
JOPLIN         CLOUDY    39  36  89 MISG      30.04S
WEST PLAINS    CLOUDY    40  37  89 W7        30.01R

$$

IAZ060-094-KSZ022-034>040-054-083-096-NEZ052-066-093-171100-
...KANSAS...SOUTHEAST NEBRASKA AND IOWA...

CITY           SKY/WX    TMP DP  RH WIND       PRES   REMARKS
TOPEKA         CLOUDY    35  31  85 W7        30.03R WCI  29
MANHATTAN      CLOUDY    34  31  88 VRB3      30.05R
EMPORIA        CLOUDY    34  33  96 NW10      30.04R FOG     WCI  26
CHANUTE        CLOUDY    37  34  89 NW9       30.06R WCI  30
WICHITA        CLOUDY    36  34  92 NW13      30.08R WCI  27
OMAHA          CLOUDY    30  26  85 NW13      30.01S WCI  20
LINCOLN        MOCLDY    30  24  78 NW10      30.04S WCI  21
FALLS CITY     CLOUDY    33  32  96 NW7       30.01S FOG     WCI  27
LAMONI         CLOUDY    33  32  96 W9        29.93R FOG     WCI  25
DES MOINES     CLOUDY    34  32  92 NW12      29.93R WCI  25

$$





USA.gov is the U.S. government's official web portal to all federal, state and local government web resources and services.